Weather History for KMTH - July, 2013

Change the Weather History Date:

Thursday, July 18, 2013

  Actual Average Record
Temperature  
Mean Temperature 79 °F 85 °F  
Max Temperature 85 °F 91 °F 95 °F (2014)
Min Temperature 72 °F 79 °F 72 °F (2013)
Degree Days  
Heating Degree Days 0 0  
Month to date heating degree days 0 0  
Since 1 June heating degree days 0 0  
Since 1 July heating degree days 0 0  
Cooling Degree Days 14 20  
Month to date cooling degree days 346 360  
Year to date cooling degree days 2792 2497  
Since 1 June cooling degree days 962 954  
Growing Degree Days 28 (Base 50)    
Moisture  
Dew Point 72 °F    
Average Humidity 82    
Maximum Humidity 90    
Minimum Humidity 74    
Precipitation  
Precipitation 2.19 in 0.15 in 2.19 in (2013)
Month to date precipitation 6.69 2.33  
Year to date precipitation 35.70 19.88  
Snow  
Snow 0.00 in - - ()
Month to date snowfall 0.0  
Since 1 June snowfall 0.0  
Since 1 July snowfall 0.0  
Snow Depth 0.00 in    
Sea Level Pressure  
Sea Level Pressure 30.09 in    
Wind  
Wind Speed 8 mph (ENE)    
Max Wind Speed 22 mph    
Max Gust Speed 32 mph    
Visibility 7 miles    
Events Fog , Rain , Thunderstorm    
T = Trace of Precipitation, MM = Missing Value Source: NWS Daily Summary

Daily Weather History Graph

Daily Weather History Graph

Search for Another Location

Airport or City:

Trip Planner

Search our weather history database for the weather conditions in past years. The results will help you decide how hot, cold, wet, or windy it might be!

Date:

Astronomy

Jul. 18, 2013 Rise Set
Actual Time 6:45 AM EDT 8:14 PM EDT
Civil Twilight 6:20 AM EDT 8:39 PM EDT
Nautical Twilight 5:50 AM EDT 9:09 PM EDT
Astronomical Twilight 5:19 AM EDT 9:41 PM EDT
Moon 4:13 PM EDT (7/18) 2:29 AM EDT (7/18)
Length of Visible Light 14h 19m
Length of Day
13h 29m
Waxing Gibbous, 77% of the Moon is Illuminated
Jul 18
Waxing Gibbous
Jul 22
Full
Jul 29
Last Quarter
Aug 6
New
Aug 14
First Quarter

Hourly Weather History & Observations

Time (EDT) Temp. Heat Index Dew Point Humidity Pressure Visibility Wind Dir Wind Speed Gust Speed Precip Events Conditions
12:53 AM 78.1 °F - 72.0 °F 81% 30.08 in 9.0 mi South 15.0 mph 20.7 mph N/A   Mostly Cloudy
1:12 AM 75.2 °F - 69.8 °F 83% 30.09 in 1.8 mi Variable 4.6 mph - 0.08 in Rain Heavy Rain
1:21 AM 75.2 °F - 71.6 °F 89% 30.09 in 2.0 mi ESE 5.8 mph - 0.12 in Rain Heavy Rain
1:24 AM 75.2 °F - 71.6 °F 89% 30.09 in 3.0 mi ESE 4.6 mph - 0.12 in Rain Light Rain
1:41 AM 75.2 °F - 71.6 °F 89% 30.08 in 8.0 mi East 3.5 mph - 0.13 in Rain Light Rain
1:53 AM 75.9 °F - 71.1 °F 85% 30.07 in 10.0 mi Calm Calm - 0.13 in   Mostly Cloudy
2:53 AM 75.9 °F - 72.0 °F 87% 30.05 in 8.0 mi NE 3.5 mph - 0.03 in Rain Light Rain
3:53 AM 77.0 °F - 72.0 °F 84% 30.04 in 10.0 mi Calm Calm - 0.02 in   Partly Cloudy
4:53 AM 78.1 °F - 73.0 °F 84% 30.04 in 10.0 mi Calm Calm - N/A   Partly Cloudy
5:53 AM 81.0 °F 86.2 °F 73.9 °F 79% 30.04 in 10.0 mi SE 4.6 mph - N/A   Scattered Clouds
6:02 AM 80.6 °F 86.2 °F 75.2 °F 84% 30.04 in 10.0 mi ESE 3.5 mph - N/A   Mostly Cloudy
6:51 AM 80.6 °F 85.4 °F 73.4 °F 79% 30.06 in 5.0 mi SE 4.6 mph - 0.03 in Rain Light Rain
6:53 AM 80.1 °F 84.5 °F 73.9 °F 81% 30.06 in 5.0 mi SE 3.5 mph - 0.03 in Rain Light Rain
7:53 AM 81.0 °F 86.2 °F 73.9 °F 79% 30.07 in 10.0 mi Variable 5.8 mph - 0.00 in   Partly Cloudy
8:53 AM 80.1 °F 84.2 °F 73.0 °F 79% 30.09 in 8.0 mi East 8.1 mph - 0.00 in Rain Light Rain
9:53 AM 82.0 °F 87.4 °F 73.0 °F 74% 30.09 in 10.0 mi ENE 10.4 mph - 0.00 in   Clear
10:53 AM 82.9 °F 89.4 °F 73.9 °F 74% 30.09 in 10.0 mi ENE 9.2 mph - N/A   Partly Cloudy
11:16 AM 84.2 °F 92.3 °F 75.2 °F 74% 30.09 in 10.0 mi ENE 9.2 mph - N/A Thunderstorm Mostly Cloudy
11:25 AM 82.4 °F 89.5 °F 75.2 °F 79% 30.09 in 10.0 mi East 6.9 mph - 0.00 in Rain Light Rain
11:31 AM 82.4 °F 89.5 °F 75.2 °F 79% 30.10 in 10.0 mi East 5.8 mph - 0.00 in Thunderstorm Mostly Cloudy
11:53 AM 82.9 °F 90.2 °F 75.0 °F 77% 30.09 in 10.0 mi Variable 5.8 mph - 0.00 in Thunderstorm Mostly Cloudy
12:53 PM 78.1 °F - 71.1 °F 79% 30.10 in 5.0 mi ENE 15.0 mph - 0.04 in Rain , Thunderstorm Light Rain
1:23 PM 75.2 °F - 69.8 °F 83% 30.10 in 3.0 mi ENE 15.0 mph 20.7 mph 0.07 in Rain , Thunderstorm Light Rain
1:45 PM 75.2 °F - 69.8 °F 83% 30.14 in 2.5 mi WNW 6.9 mph 16.1 mph 0.14 in Rain , Thunderstorm Light Thunderstorms and Rain
1:47 PM 75.2 °F - 69.8 °F 83% 30.14 in 1.5 mi WNW 12.7 mph 17.3 mph 0.16 in Rain , Thunderstorm Heavy Thunderstorms and Rain
1:53 PM 75.9 °F - 71.1 °F 85% 30.14 in 0.5 mi WNW 19.6 mph 25.3 mph 0.33 in Rain , Thunderstorm Heavy Thunderstorms and Rain
2:04 PM 75.2 °F - 71.6 °F 89% 30.14 in 1.0 mi NW 16.1 mph 32.2 mph 0.08 in Rain , Thunderstorm Heavy Thunderstorms and Rain
2:16 PM 75.2 °F - 71.6 °F 89% 30.15 in 0.2 mi NW 12.7 mph 28.8 mph 0.54 in Fog , Rain , Thunderstorm Heavy Thunderstorms and Rain
2:41 PM 71.6 °F - 68.0 °F 88% 30.13 in 1.0 mi NE 15.0 mph 21.9 mph 1.24 in Rain , Thunderstorm Heavy Thunderstorms and Rain
2:49 PM 71.6 °F - 68.0 °F 88% 30.12 in 0.8 mi NE 9.2 mph - 1.39 in Rain , Thunderstorm Heavy Thunderstorms and Rain
2:53 PM 72.0 °F - 68.0 °F 87% 30.12 in 1.0 mi ENE 12.7 mph - 1.44 in Rain , Thunderstorm Heavy Thunderstorms and Rain
3:10 PM 73.4 °F - 69.8 °F 88% 30.10 in 2.0 mi ENE 9.2 mph - 0.15 in Rain , Thunderstorm Thunderstorms and Rain
3:18 PM 73.4 °F - 69.8 °F 88% 30.08 in 6.0 mi NE 6.9 mph - 0.16 in Rain , Thunderstorm Light Thunderstorms and Rain
3:32 PM 73.4 °F - 69.8 °F 88% 30.07 in 9.0 mi NE 9.2 mph - 0.16 in Rain Light Rain
3:53 PM 75.9 °F - 69.1 °F 79% 30.06 in 10.0 mi NE 8.1 mph - 0.17 in Rain Light Rain
4:53 PM 79.0 °F - 70.0 °F 74% 30.07 in 10.0 mi NE 9.2 mph - 0.00 in   Clear
5:53 PM 79.0 °F - 71.1 °F 77% 30.07 in 10.0 mi NNE 9.2 mph - N/A   Scattered Clouds
6:29 PM 78.8 °F - 73.4 °F 83% 30.06 in 10.0 mi NNE 8.1 mph - N/A   Scattered Clouds
6:53 PM 79.0 °F - 72.0 °F 79% 30.07 in 10.0 mi NNE 9.2 mph - N/A   Clear
7:28 PM 78.8 °F - 71.6 °F 78% 30.08 in 10.0 mi North 6.9 mph - N/A   Mostly Cloudy
7:53 PM 78.1 °F - 71.1 °F 79% 30.07 in 10.0 mi NNE 9.2 mph - N/A   Mostly Cloudy
8:05 PM 78.8 °F - 71.6 °F 78% 30.06 in 10.0 mi NNE 8.1 mph - N/A   Scattered Clouds
8:53 PM 78.1 °F - 72.0 °F 81% 30.07 in 10.0 mi NE 9.2 mph - N/A   Clear
9:53 PM 78.1 °F - 72.0 °F 81% 30.08 in 10.0 mi ENE 10.4 mph - N/A   Partly Cloudy
10:53 PM 79.0 °F - 72.0 °F 79% 30.08 in 10.0 mi ENE 9.2 mph - N/A   Clear
11:53 PM 78.1 °F - 73.0 °F 84% 30.08 in 10.0 mi ENE 6.9 mph - N/A   Clear